Location: Bremen
(53.0793°N, 8.8017°E)
Time: 21:03:24
(UTC+02:00)

Envisat - Pass Details

Date: 03 March 2024
Orbit: 762 x 764 km, 98.3° (Epoch: 13 April)

Event Time Altitude Azimuth Distance (km) Brightness Sun altitude
Rises 03:24:09 0° 19° (NNE) 3,244 7.0 -32.5°
Reaches altitude 10° 03:26:36 10° 26° (NNE) 2,312 6.2 -32.2°
Enters shadow 03:31:19 42° 94° (E) 1,092 4.0 -31.6°
